Zurück zum Katalog

DMSP 5D-2 F13 DEB

AktivPO
NORAD 40462·DEBRIS·🇺🇸 United States

Gestartet Mar 24, 1995 von Vandenberg Space Force Base

Loading…

Nächste Überflüge (nächste 24 Stunden)

TLE

AktuellSource: Space-Track

Epoche: Sep 14, 2026, 14:17 UTC

1 40462U 95015BE  26257.59566141  .00007057  00000-0  18643-2 0  9998
2 40462  98.9574 309.8214 0033298 101.4314 259.0621 14.48877563594743

Verfolge DMSP 5D-2 F13 DEB in Echtzeit mit AllMySat

Download on the App Store